| time (UTC) | temp C | wind direction | speed KPH | gust KPH | rain 1hr cm | rain 24hr cm | rain mn cm | humidity % | barometer mb |
| 20260502210559 | 12 | 3 | 0.0 | 3.2 | 0.15 | 0.18 | 0.18 | 90 | 1012.3 |
| 20260502210159 | 12 | 352 | 0.0 | 3.2 | 0.15 | 0.18 | 0.18 | 89 | 1012.3 |
| 20260502210002 | 12 | 4 | 0.0 | 3.2 | 0.15 | 0.18 | 0.18 | 89 | 1012.4 |
| 20260502205758 | 12 | 343 | 0.0 | 3.2 | 0.15 | 0.18 | 0.18 | 89 | 1012.4 |
| 20260502205559 | 12 | 49 | 0.0 | 0.0 | 0.15 | 0.18 | 0.18 | 89 | 1012.5 |
| 20260502205359 | 12 | 49 | 0.0 | 0.0 | 0.15 | 0.18 | 0.18 | 89 | 1012.4 |
| 20260502204959 | 12 | 59 | 0.0 | 3.2 | 0.15 | 0.15 | 0.15 | 88 | 1012.5 |
| 20260502204559 | 12 | 85 | 0.0 | 4.8 | 0.15 | 0.15 | 0.15 | 88 | 1012.5 |
| 20260502204358 | 12 | 37 | 0.0 | 4.8 | 0.15 | 0.15 | 0.15 | 88 | 1012.5 |
| 20260502204200 | 12 | 33 | 1.6 | 4.8 | 0.13 | 0.15 | 0.15 | 88 | 1012.5 |
| 20260502203959 | 12 | 132 | 0.0 | 0.0 | 0.13 | 0.15 | 0.15 | 87 | 1012.6 |
| 20260502203800 | 12 | 91 | 0.0 | 0.0 | 0.13 | 0.15 | 0.15 | 87 | 1012.5 |
| 20260502203400 | 12 | 98 | 0.0 | 0.0 | 0.10 | 0.13 | 0.13 | 87 | 1012.6 |
| 20260502203159 | 12 | 111 | 0.0 | 0.0 | 0.10 | 0.13 | 0.13 | 86 | 1012.5 |
| 20260502203001 | 12 | 105 | 0.0 | 1.6 | 0.08 | 0.10 | 0.10 | 86 | 1012.6 |
| 20260502202758 | 12 | 111 | 0.0 | 1.6 | 0.08 | 0.10 | 0.10 | 86 | 1012.6 |
| 20260502202600 | 12 | 111 | 0.0 | 3.2 | 0.08 | 0.10 | 0.10 | 85 | 1012.5 |
| 20260502202359 | 13 | 43 | 0.0 | 3.2 | 0.08 | 0.10 | 0.10 | 85 | 1012.6 |
| 20260502202200 | 13 | 28 | 0.0 | 3.2 | 0.05 | 0.08 | 0.08 | 84 | 1012.6 |
| 20260502201959 | 13 | 357 | 0.0 | 3.2 | 0.05 | 0.08 | 0.08 | 84 | 1012.6 |
| 20260502201801 | 13 | 94 | 0.0 | 1.6 | 0.05 | 0.08 | 0.08 | 84 | 1012.7 |
| 20260502201559 | 13 | 101 | 0.0 | 1.6 | 0.05 | 0.05 | 0.05 | 83 | 1012.5 |
| 20260502201400 | 13 | 110 | 0.0 | 1.6 | 0.05 | 0.05 | 0.05 | 83 | 1012.5 |
| 20260502201001 | 13 | 110 | 0.0 | 3.2 | 0.05 | 0.05 | 0.05 | 82 | 1012.6 |
| 20260502200759 | 13 | 110 | 0.0 | 3.2 | 0.03 | 0.05 | 0.05 | 81 | 1012.4 |
| 20260502200401 | 13 | 108 | 1.6 | 3.2 | 0.03 | 0.05 | 0.05 | 80 | 1012.6 |
| 20260502200159 | 13 | 72 | 0.0 | 0.0 | 0.03 | 0.05 | 0.05 | 80 | 1012.5 |
| 20260502200005 | 13 | 89 | 0.0 | 0.0 | 0.00 | 0.03 | 0.03 | 80 | 1012.5 |
| 20260502195759 | 13 | 82 | 0.0 | 0.0 | 0.00 | 0.05 | 0.03 | 80 | 1012.5 |
| 20260502195359 | 14 | 96 | 0.0 | 1.6 | 0.00 | 0.05 | 0.03 | 80 | 1012.5 |
| 20260502195159 | 14 | 96 | 0.0 | 1.6 | 0.00 | 0.05 | 0.03 | 79 | 1012.5 |
| 20260502194959 | 14 | 96 | 0.0 | 1.6 | 0.00 | 0.05 | 0.03 | 79 | 1012.5 |
| 20260502194758 | 14 | 96 | 0.0 | 1.6 | 0.00 | 0.05 | 0.03 | 78 | 1012.5 |
| 20260502194559 | 14 | 116 | 0.0 | 0.0 | 0.00 | 0.05 | 0.03 | 78 | 1012.5 |
| 20260502194359 | 14 | 60 | 0.0 | 0.0 | 0.00 | 0.05 | 0.03 | 77 | 1012.4 |
| 20260502194159 | 14 | 60 | 0.0 | 0.0 | 0.00 | 0.05 | 0.03 | 77 | 1012.4 |
| 20260502193959 | 14 | 60 | 0.0 | 0.0 | 0.00 | 0.05 | 0.03 | 77 | 1012.4 |
| 20260502193758 | 14 | 61 | 0.0 | 0.0 | 0.00 | 0.05 | 0.03 | 77 | 1012.4 |
| 20260502193559 | 14 | 350 | 0.0 | 0.0 | 0.00 | 0.05 | 0.03 | 76 | 1012.4 |
| 20260502193358 | 14 | 350 | 0.0 | 0.0 | 0.00 | 0.05 | 0.03 | 76 | 1012.3 |
| 20260502193159 | 14 | 347 | 0.0 | 0.0 | 0.00 | 0.05 | 0.03 | 76 | 1012.4 |
| 20260502192959 | 14 | 347 | 0.0 | 0.0 | 0.00 | 0.05 | 0.03 | 75 | 1012.3 |
| 20260502192758 | 14 | 8 | 0.0 | 0.0 | 0.00 | 0.05 | 0.03 | 75 | 1012.3 |
| 20260502192359 | 14 | 7 | 0.0 | 0.0 | 0.00 | 0.05 | 0.03 | 74 | 1012.3 |
| 20260502192158 | 14 | 8 | 0.0 | 0.0 | 0.00 | 0.05 | 0.03 | 74 | 1012.3 |
| 20260502192000 | 14 | 8 | 0.0 | 1.6 | 0.00 | 0.05 | 0.03 | 74 | 1012.3 |
| 20260502191759 | 14 | 8 | 0.0 | 1.6 | 0.00 | 0.05 | 0.03 | 74 | 1012.3 |
| 20260502191600 | 14 | 36 | 0.0 | 1.6 | 0.00 | 0.05 | 0.03 | 74 | 1012.2 |
| 20260502191200 | 14 | 351 | 0.0 | 3.2 | 0.00 | 0.05 | 0.03 | 73 | 1012.3 |
| 20260502191000 | 14 | 352 | 0.0 | 4.8 | 0.00 | 0.05 | 0.03 | 73 | 1012.2 |
| 20260502190800 | 14 | 338 | 0.0 | 4.8 | 0.00 | 0.05 | 0.03 | 73 | 1012.2 |
| 20260502190559 | 15 | 349 | 1.6 | 4.8 | 0.00 | 0.05 | 0.03 | 73 | 1012.3 |
| 20260502190400 | 15 | 11 | 1.6 | 4.8 | 0.00 | 0.05 | 0.03 | 73 | 1012.2 |
| 20260502190159 | 15 | 344 | 1.6 | 4.8 | 0.00 | 0.05 | 0.03 | 72 | 1012.2 |
| 20260502190004 | 15 | 3 | 3.2 | 4.8 | 0.00 | 0.05 | 0.03 | 72 | 1012.2 |
| 20260502185758 | 15 | 333 | 3.2 | 4.8 | 0.00 | 0.15 | 0.03 | 72 | 1012.2 |
| 20260502185600 | 15 | 359 | 3.2 | 4.8 | 0.00 | 0.15 | 0.03 | 71 | 1012.2 |
| 20260502185359 | 15 | 333 | 3.2 | 4.8 | 0.00 | 0.15 | 0.03 | 70 | 1012.2 |
| 20260502185200 | 15 | 341 | 1.6 | 4.8 | 0.00 | 0.15 | 0.03 | 70 | 1012.3 |
| 20260502184800 | 15 | 348 | 1.6 | 1.6 | 0.00 | 0.15 | 0.03 | 66 | 1012.3 |
| 20260502184559 | 15 | 11 | 0.0 | 1.6 | 0.00 | 0.15 | 0.03 | 66 | 1012.2 |
| 20260502184400 | 15 | 14 | 0.0 | 1.6 | 0.00 | 0.15 | 0.03 | 66 | 1012.3 |
| 20260502184159 | 15 | 14 | 0.0 | 1.6 | 0.00 | 0.15 | 0.03 | 66 | 1012.3 |
| 20260502184001 | 15 | 24 | 0.0 | 1.6 | 0.00 | 0.15 | 0.03 | 66 | 1012.4 |
| 20260502183759 | 15 | 155 | 0.0 | 0.0 | 0.00 | 0.15 | 0.03 | 67 | 1012.4 |
| 20260502183600 | 15 | 156 | 0.0 | 0.0 | 0.00 | 0.15 | 0.03 | 67 | 1012.5 |
| 20260502183200 | 15 | 156 | 0.0 | 0.0 | 0.00 | 0.15 | 0.03 | 66 | 1012.5 |
| 20260502182959 | 15 | 156 | 0.0 | 0.0 | 0.00 | 0.15 | 0.03 | 66 | 1012.6 |
| 20260502182800 | 15 | 156 | 0.0 | 0.0 | 0.00 | 0.15 | 0.03 | 66 | 1012.5 |
| 20260502182600 | 15 | 157 | 0.0 | 0.0 | 0.00 | 0.15 | 0.03 | 66 | 1012.5 |
| 20260502182401 | 15 | 156 | 0.0 | 0.0 | 0.00 | 0.15 | 0.03 | 66 | 1012.5 |
| 20260502182159 | 15 | 156 | 0.0 | 0.0 | 0.00 | 0.15 | 0.03 | 64 | 1012.6 |
| 20260502182001 | 15 | 156 | 0.0 | 0.0 | 0.00 | 0.15 | 0.03 | 63 | 1012.7 |
| 20260502181758 | 15 | 156 | 0.0 | 0.0 | 0.00 | 0.15 | 0.03 | 63 | 1012.6 |
| 20260502181601 | 15 | 156 | 0.0 | 0.0 | 0.00 | 0.15 | 0.03 | 63 | 1012.6 |
| 20260502181359 | 15 | 156 | 0.0 | 1.6 | 0.00 | 0.15 | 0.03 | 62 | 1012.6 |
| 20260502181200 | 16 | 157 | 0.0 | 3.2 | 0.00 | 0.15 | 0.03 | 62 | 1012.7 |
| 20260502181000 | 16 | 156 | 0.0 | 3.2 | 0.00 | 0.15 | 0.03 | 62 | 1012.6 |
| 20260502180800 | 16 | 157 | 0.0 | 3.2 | 0.00 | 0.15 | 0.03 | 61 | 1012.6 |
| 20260502180559 | 16 | 156 | 1.6 | 3.2 | 0.00 | 0.15 | 0.03 | 61 | 1012.7 |
| 20260502180401 | 16 | 155 | 1.6 | 3.2 | 0.00 | 0.15 | 0.03 | 60 | 1012.6 |
| 20260502180158 | 16 | 217 | 0.0 | 0.0 | 0.00 | 0.15 | 0.03 | 61 | 1012.7 |
| 20260502170400 | 16 | 127 | 0.0 | 3.2 | 0.00 | 0.15 | 0.03 | 59 | 1012.7 |
| 20260502170159 | 16 | 93 | 0.0 | 3.2 | 0.00 | 0.15 | 0.03 | 60 | 1012.7 |
| 20260502164159 | 16 | 155 | 3.2 | 6.4 | 0.00 | 0.15 | 0.03 | 59 | 1012.9 |
| 20260502163758 | 16 | 38 | 0.0 | 4.8 | 0.00 | 0.15 | 0.03 | 61 | 1013.0 |
| 20260502163358 | 16 | 355 | 0.0 | 4.8 | 0.00 | 0.15 | 0.03 | 60 | 1013.0 |
| 20260502163159 | 16 | 349 | 0.0 | 4.8 | 0.00 | 0.15 | 0.03 | 60 | 1013.0 |
| 20260502162759 | 16 | 151 | 0.0 | 4.8 | 0.00 | 0.15 | 0.03 | 60 | 1013.1 |
| 20260502162559 | 16 | 67 | 0.0 | 4.8 | 0.00 | 0.15 | 0.03 | 60 | 1013.1 |
| 20260502162358 | 16 | 96 | 1.6 | 4.8 | 0.00 | 0.15 | 0.03 | 60 | 1013.1 |
| 20260502162000 | 16 | 56 | 0.0 | 3.2 | 0.00 | 0.15 | 0.03 | 60 | 1013.1 |
| 20260502161759 | 16 | 128 | 1.6 | 3.2 | 0.00 | 0.15 | 0.03 | 61 | 1013.2 |
| 20260502161600 | 16 | 131 | 0.0 | 4.8 | 0.00 | 0.15 | 0.03 | 60 | 1013.2 |
| 20260502161201 | 17 | 1 | 1.6 | 4.8 | 0.00 | 0.15 | 0.03 | 59 | 1013.3 |
| 20260502160959 | 17 | 341 | 1.6 | 4.8 | 0.00 | 0.15 | 0.03 | 59 | 1013.2 |
| 20260502160800 | 17 | 8 | 1.6 | 4.8 | 0.00 | 0.15 | 0.03 | 59 | 1013.3 |
| 20260502160559 | 17 | 19 | 0.0 | 4.8 | 0.00 | 0.15 | 0.03 | 59 | 1013.4 |
| 20260502160400 | 17 | 69 | 0.0 | 4.8 | 0.00 | 0.15 | 0.03 | 60 | 1013.3 |
| 20260502160159 | 17 | 18 | 0.0 | 4.8 | 0.00 | 0.15 | 0.03 | 60 | 1013.3 |
| 20260502152158 | 17 | 22 | 1.6 | 3.2 | 0.00 | 0.15 | 0.03 | 57 | 1013.6 |
| 20260502151759 | 17 | 146 | 0.0 | 3.2 | 0.00 | 0.15 | 0.03 | 57 | 1013.6 |
| 20260502151601 | 17 | 136 | 0.0 | 3.2 | 0.00 | 0.15 | 0.03 | 57 | 1013.6 |
| 20260502151359 | 17 | 136 | 1.6 | 3.2 | 0.00 | 0.15 | 0.03 | 57 | 1013.6 |
| 20260502151158 | 17 | 68 | 0.0 | 0.0 | 0.00 | 0.15 | 0.03 | 57 | 1013.6 |
| 20260502151000 | 17 | 126 | 0.0 | 0.0 | 0.00 | 0.15 | 0.03 | 57 | 1013.6 |
| 20260502150759 | 17 | 219 | 0.0 | 1.6 | 0.00 | 0.15 | 0.03 | 57 | 1013.6 |
| 20260502150559 | 17 | 219 | 0.0 | 4.8 | 0.00 | 0.15 | 0.03 | 58 | 1013.7 |
| 20260502150359 | 17 | 219 | 0.0 | 4.8 | 0.00 | 0.15 | 0.03 | 58 | 1013.8 |
| 20260502150159 | 17 | 222 | 0.0 | 4.8 | 0.00 | 0.15 | 0.03 | 59 | 1013.7 |
| 20260502130601 | 17 | 159 | 3.2 | 8.0 | 0.00 | 0.15 | 0.03 | 60 | 1015.0 |
| 20260502130359 | 17 | 203 | 3.2 | 9.7 | 0.00 | 0.15 | 0.03 | 61 | 1015.0 |
| 20260502130201 | 16 | 232 | 1.6 | 9.7 | 0.00 | 0.15 | 0.03 | 61 | 1015.0 |
| 20260502123557 | 16 | 326 | 3.2 | 6.4 | 0.00 | 0.15 | 0.03 | 66 | 1015.7 |
| 20260502123358 | 16 | 148 | 1.6 | 4.8 | 0.00 | 0.15 | 0.03 | 67 | 1015.6 |
| 20260502123158 | 16 | 171 | 0.0 | 3.2 | 0.00 | 0.15 | 0.03 | 64 | 1015.6 |
| 20260502123003 | 16 | 347 | 0.0 | 6.4 | 0.00 | 0.15 | 0.03 | 65 | 1015.6 |
| 20260502122759 | 16 | 23 | 0.0 | 6.4 | 0.00 | 0.15 | 0.03 | 65 | 1015.7 |
| 20260502122357 | 16 | 162 | 1.6 | 6.4 | 0.00 | 0.15 | 0.03 | 65 | 1015.7 |
| 20260502122158 | 16 | 91 | 3.2 | 6.4 | 0.00 | 0.15 | 0.03 | 65 | 1015.7 |
| 20260502121958 | 16 | 230 | 1.6 | 6.4 | 0.00 | 0.15 | 0.03 | 65 | 1015.8 |
| 20260502121758 | 16 | 280 | 1.6 | 6.4 | 0.00 | 0.15 | 0.03 | 67 | 1015.8 |
| 20260502121558 | 16 | 166 | 1.6 | 6.4 | 0.00 | 0.15 | 0.03 | 67 | 1015.8 |
| 20260502121357 | 16 | 222 | 1.6 | 6.4 | 0.00 | 0.15 | 0.03 | 67 | 1015.9 |
| 20260502121158 | 16 | 143 | 3.2 | 6.4 | 0.00 | 0.15 | 0.03 | 67 | 1015.9 |
| 20260502120959 | 16 | 80 | 1.6 | 6.4 | 0.00 | 0.15 | 0.03 | 68 | 1016.0 |
| 20260502120758 | 16 | 165 | 1.6 | 6.4 | 0.00 | 0.15 | 0.03 | 69 | 1015.9 |
| 20260502120558 | 15 | 89 | 0.0 | 6.4 | 0.00 | 0.15 | 0.03 | 69 | 1015.9 |
| 20260502120358 | 15 | 94 | 0.0 | 6.4 | 0.00 | 0.15 | 0.03 | 69 | 1016.0 |
| 20260502120158 | 15 | 162 | 1.6 | 6.4 | 0.00 | 0.15 | 0.03 | 69 | 1016.0 |
| 20260502115557 | 15 | 170 | 1.6 | 6.4 | 0.00 | 0.15 | 0.03 | 70 | 1016.1 |
| 20260502115358 | 15 | 225 | 1.6 | 9.7 | 0.00 | 0.15 | 0.03 | 69 | 1016.2 |
| 20260502115158 | 15 | 136 | 1.6 | 9.7 | 0.00 | 0.15 | 0.03 | 69 | 1016.1 |
| 20260502114959 | 15 | 184 | 1.6 | 9.7 | 0.00 | 0.15 | 0.03 | 70 | 1016.1 |
| 20260502114758 | 15 | 171 | 4.8 | 9.7 | 0.00 | 0.15 | 0.03 | 69 | 1016.1 |
| 20260502114358 | 15 | 101 | 1.6 | 4.8 | 0.00 | 0.15 | 0.03 | 69 | 1016.1 |
| 20260502114157 | 15 | 148 | 0.0 | 1.6 | 0.00 | 0.15 | 0.03 | 70 | 1016.2 |
| 20260502113758 | 15 | 20 | 0.0 | 4.8 | 0.00 | 0.15 | 0.03 | 70 | 1016.3 |
| 20260502113558 | 15 | 159 | 0.0 | 6.4 | 0.00 | 0.15 | 0.03 | 71 | 1016.2 |
| 20260502113358 | 15 | 159 | 0.0 | 6.4 | 0.00 | 0.15 | 0.03 | 70 | 1016.3 |
| 20260502113158 | 14 | 160 | 0.0 | 6.4 | 0.00 | 0.15 | 0.03 | 71 | 1016.3 |
| 20260502112958 | 14 | 150 | 1.6 | 6.4 | 0.00 | 0.15 | 0.03 | 71 | 1016.3 |
| 20260502112758 | 14 | 129 | 1.6 | 6.4 | 0.00 | 0.15 | 0.03 | 72 | 1016.3 |
| 20260502112559 | 14 | 167 | 0.0 | 6.4 | 0.00 | 0.15 | 0.03 | 72 | 1016.3 |
| 20260502112359 | 14 | 214 | 1.6 | 6.4 | 0.00 | 0.15 | 0.03 | 72 | 1016.2 |
| 20260502112200 | 14 | 254 | 1.6 | 3.2 | 0.00 | 0.15 | 0.03 | 72 | 1016.4 |
| 20260502111959 | 14 | 338 | 0.0 | 1.6 | 0.00 | 0.15 | 0.03 | 72 | 1016.3 |
| 20260502111759 | 14 | 138 | 0.0 | 4.8 | 0.00 | 0.15 | 0.03 | 73 | 1016.3 |
| 20260502111558 | 13 | 141 | 0.0 | 8.0 | 0.00 | 0.15 | 0.03 | 74 | 1016.3 |
| 20260502111359 | 13 | 141 | 0.0 | 8.0 | 0.00 | 0.15 | 0.03 | 75 | 1016.3 |
| 20260502111158 | 13 | 189 | 1.6 | 8.0 | 0.00 | 0.15 | 0.03 | 74 | 1016.3 |
| 20260502111000 | 13 | 110 | 3.2 | 8.0 | 0.00 | 0.15 | 0.03 | 74 | 1016.4 |
| 20260502110758 | 13 | 109 | 1.6 | 8.0 | 0.00 | 0.15 | 0.03 | 75 | 1016.3 |
| 20260502110559 | 13 | 145 | 1.6 | 9.7 | 0.00 | 0.15 | 0.03 | 75 | 1016.4 |
| 20260502110357 | 13 | 162 | 3.2 | 9.7 | 0.00 | 0.15 | 0.03 | 75 | 1016.4 |
| 20260502110200 | 13 | 154 | 3.2 | 9.7 | 0.00 | 0.15 | 0.03 | 76 | 1016.4 |
| 20260502110006 | 13 | 168 | 6.4 | 9.7 | 0.00 | 0.15 | 0.03 | 74 | 1016.5 |
| 20260502105758 | 13 | 173 | 1.6 | 6.4 | 0.00 | 0.15 | 0.03 | 75 | 1016.5 |
| 20260502105558 | 13 | 200 | 1.6 | 4.8 | 0.00 | 0.15 | 0.03 | 75 | 1016.5 |
| 20260502105358 | 13 | 179 | 0.0 | 0.0 | 0.00 | 0.15 | 0.03 | 75 | 1016.5 |
| 20260502105157 | 13 | 248 | 0.0 | 0.0 | 0.00 | 0.15 | 0.03 | 75 | 1016.6 |
| 20260502104959 | 13 | 70 | 0.0 | 0.0 | 0.00 | 0.15 | 0.03 | 75 | 1016.6 |
| 20260502104759 | 13 | 70 | 0.0 | 0.0 | 0.00 | 0.15 | 0.03 | 75 | 1016.6 |
| 20260502104359 | 13 | 3 | 0.0 | 3.2 | 0.00 | 0.15 | 0.03 | 75 | 1016.5 |
| 20260502104158 | 13 | 328 | 0.0 | 3.2 | 0.00 | 0.15 | 0.03 | 75 | 1016.5 |
| 20260502104000 | 13 | 317 | 0.0 | 3.2 | 0.00 | 0.15 | 0.03 | 76 | 1016.5 |
| 20260502103757 | 13 | 168 | 0.0 | 3.2 | 0.00 | 0.15 | 0.03 | 76 | 1016.5 |
| 20260502103357 | 13 | 317 | 0.0 | 6.4 | 0.00 | 0.15 | 0.03 | 76 | 1016.5 |
| 20260502102958 | 13 | 347 | 0.0 | 6.4 | 0.00 | 0.15 | 0.03 | 76 | 1016.5 |
| 20260502102759 | 13 | 347 | 1.6 | 6.4 | 0.00 | 0.15 | 0.03 | 77 | 1016.6 |
| 20260502102558 | 13 | 320 | 1.6 | 6.4 | 0.00 | 0.15 | 0.03 | 77 | 1016.7 |
| 20260502102359 | 13 | 328 | 1.6 | 4.8 | 0.00 | 0.15 | 0.03 | 77 | 1016.7 |
| 20260502102158 | 13 | 295 | 0.0 | 3.2 | 0.00 | 0.15 | 0.03 | 77 | 1016.8 |
| 20260502102000 | 13 | 282 | 1.6 | 4.8 | 0.00 | 0.15 | 0.03 | 76 | 1016.9 |
| 20260502101758 | 13 | 150 | 0.0 | 4.8 | 0.00 | 0.15 | 0.03 | 76 | 1016.8 |
| 20260502101559 | 13 | 160 | 0.0 | 4.8 | 0.00 | 0.15 | 0.03 | 76 | 1016.8 |
| 20260502101358 | 13 | 183 | 1.6 | 4.8 | 0.00 | 0.15 | 0.03 | 76 | 1016.8 |
| 20260502101159 | 13 | 139 | 1.6 | 4.8 | 0.00 | 0.15 | 0.03 | 76 | 1016.9 |
| 20260502100958 | 13 | 205 | 1.6 | 3.2 | 0.00 | 0.15 | 0.03 | 76 | 1016.9 |
| 20260502100759 | 13 | 146 | 0.0 | 1.6 | 0.00 | 0.15 | 0.03 | 77 | 1016.9 |
| 20260502100557 | 13 | 237 | 0.0 | 3.2 | 0.00 | 0.15 | 0.03 | 77 | 1016.8 |
| 20260502100401 | 13 | 255 | 0.0 | 3.2 | 0.00 | 0.15 | 0.03 | 76 | 1016.8 |
| 20260502091158 | 12 | 143 | 0.0 | 0.0 | 0.00 | 0.15 | 0.03 | 87 | 1017.0 |
| 20260502090958 | 12 | 168 | 0.0 | 0.0 | 0.00 | 0.15 | 0.03 | 87 | 1017.0 |
| 20260502090757 | 12 | 167 | 0.0 | 0.0 | 0.00 | 0.15 | 0.03 | 87 | 1017.1 |
| 20260502090557 | 12 | 150 | 0.0 | 0.0 | 0.00 | 0.15 | 0.03 | 88 | 1017.1 |
| 20260502090357 | 11 | 154 | 0.0 | 0.0 | 0.00 | 0.15 | 0.03 | 88 | 1017.1 |
| 20260502090157 | 11 | 212 | 0.0 | 0.0 | 0.00 | 0.15 | 0.03 | 89 | 1017.3 |
| 20260502071157 | 8 | 154 | 0.0 | 3.2 | 0.00 | 0.15 | 0.03 | 97 | 1017.3 |
| 20260502070958 | 8 | 136 | 1.6 | 3.2 | 0.00 | 0.15 | 0.03 | 97 | 1017.2 |
| 20260502070757 | 8 | 163 | 1.6 | 3.2 | 0.00 | 0.15 | 0.03 | 97 | 1017.3 |
| 20260502070557 | 8 | 191 | 1.6 | 3.2 | 0.00 | 0.15 | 0.03 | 97 | 1017.3 |
| 20260502070357 | 8 | 146 | 0.0 | 4.8 | 0.00 | 0.15 | 0.03 | 97 | 1017.3 |
| 20260502070158 | 8 | 154 | 0.0 | 4.8 | 0.00 | 0.15 | 0.03 | 97 | 1017.3 |
| 20260502070001 | 8 | 142 | 0.0 | 4.8 | 0.00 | 0.15 | 0.03 | 97 | 1017.3 |
| 20260502065759 | 8 | 141 | 0.0 | 4.8 | 0.00 | 0.15 | 0.03 | 97 | 1017.3 |
| 20260502065557 | 8 | 139 | 1.6 | 4.8 | 0.00 | 0.15 | 0.03 | 97 | 1017.2 |
| 20260502065359 | 8 | 130 | 1.6 | 3.2 | 0.00 | 0.15 | 0.03 | 98 | 1017.3 |
| 20260502065157 | 8 | 95 | 0.0 | 0.0 | 0.00 | 0.15 | 0.03 | 98 | 1017.3 |
| 20260502065000 | 8 | 115 | 0.0 | 0.0 | 0.00 | 0.15 | 0.03 | 98 | 1017.2 |
| 20260502064759 | 8 | 113 | 0.0 | 0.0 | 0.00 | 0.15 | 0.03 | 98 | 1017.2 |
| 20260502064357 | 8 | 113 | 0.0 | 0.0 | 0.00 | 0.15 | 0.03 | 97 | 1017.1 |
| 20260502064158 | 8 | 113 | 0.0 | 0.0 | 0.00 | 0.15 | 0.03 | 98 | 1017.2 |
| 20260502064000 | 8 | 124 | 0.0 | 0.0 | 0.00 | 0.15 | 0.03 | 98 | 1017.3 |
| 20260502063757 | 8 | 124 | 0.0 | 0.0 | 0.00 | 0.15 | 0.03 | 98 | 1017.1 |
| 20260502063358 | 8 | 107 | 0.0 | 0.0 | 0.00 | 0.15 | 0.03 | 98 | 1017.2 |
| 20260502063159 | 8 | 102 | 0.0 | 0.0 | 0.00 | 0.15 | 0.03 | 98 | 1017.2 |
| 20260502062958 | 8 | 102 | 0.0 | 0.0 | 0.00 | 0.15 | 0.03 | 98 | 1017.3 |
| 20260502062558 | 8 | 102 | 0.0 | 0.0 | 0.00 | 0.15 | 0.03 | 98 | 1017.2 |
| 20260502062359 | 8 | 102 | 0.0 | 0.0 | 0.00 | 0.15 | 0.03 | 98 | 1017.2 |
| 20260502062000 | 7 | 102 | 0.0 | 0.0 | 0.00 | 0.15 | 0.03 | 98 | 1017.2 |
| 20260502061757 | 7 | 102 | 0.0 | 0.0 | 0.00 | 0.15 | 0.03 | 98 | 1017.3 |
| 20260502061559 | 7 | 102 | 0.0 | 0.0 | 0.00 | 0.15 | 0.03 | 98 | 1017.2 |
| 20260502061357 | 7 | 102 | 0.0 | 0.0 | 0.00 | 0.15 | 0.03 | 98 | 1017.2 |
| 20260502061157 | 7 | 119 | 0.0 | 0.0 | 0.00 | 0.15 | 0.03 | 98 | 1017.2 |
| 20260502060958 | 7 | 119 | 0.0 | 0.0 | 0.00 | 0.15 | 0.03 | 98 | 1017.3 |
| 20260502060758 | 7 | 117 | 0.0 | 0.0 | 0.00 | 0.15 | 0.03 | 98 | 1017.1 |
| 20260502060557 | 7 | 117 | 0.0 | 0.0 | 0.00 | 0.15 | 0.03 | 97 | 1017.2 |
| 20260502060157 | 7 | 118 | 0.0 | 0.0 | 0.00 | 0.15 | 0.03 | 97 | 1017.3 |
| 20260502060000 | 7 | 118 | 0.0 | 0.0 | 0.00 | 0.15 | 0.03 | 97 | 1017.2 |
| 20260502055759 | 7 | 118 | 0.0 | 0.0 | 0.00 | 0.15 | 0.03 | 97 | 1017.1 |
| 20260502055558 | 7 | 118 | 0.0 | 0.0 | 0.00 | 0.15 | 0.03 | 97 | 1017.2 |
| 20260502055359 | 7 | 118 | 0.0 | 0.0 | 0.00 | 0.15 | 0.03 | 97 | 1017.1 |
| 20260502055157 | 7 | 118 | 0.0 | 0.0 | 0.00 | 0.15 | 0.03 | 97 | 1017.1 |
| 20260502054758 | 7 | 123 | 0.0 | 0.0 | 0.00 | 0.15 | 0.03 | 97 | 1017.3 |
| 20260502054559 | 6 | 123 | 0.0 | 0.0 | 0.00 | 0.15 | 0.03 | 97 | 1017.3 |
| 20260502054357 | 6 | 123 | 0.0 | 0.0 | 0.00 | 0.15 | 0.03 | 97 | 1017.3 |
| 20260502054200 | 6 | 123 | 0.0 | 0.0 | 0.00 | 0.15 | 0.03 | 97 | 1017.3 |
| 20260502053958 | 6 | 70 | 0.0 | 0.0 | 0.00 | 0.15 | 0.03 | 97 | 1017.2 |
| 20260502053757 | 6 | 70 | 0.0 | 0.0 | 0.00 | 0.15 | 0.03 | 97 | 1017.2 |
| 20260502053557 | 6 | 70 | 0.0 | 0.0 | 0.00 | 0.15 | 0.03 | 97 | 1017.2 |
| 20260502053357 | 6 | 70 | 0.0 | 0.0 | 0.00 | 0.15 | 0.03 | 97 | 1017.2 |
| 20260502052958 | 6 | 70 | 0.0 | 0.0 | 0.03 | 0.15 | 0.03 | 97 | 1017.1 |
| 20260502052558 | 6 | 63 | 0.0 | 0.0 | 0.03 | 0.15 | 0.03 | 97 | 1017.1 |
| 20260502052358 | 6 | 20 | 0.0 | 0.0 | 0.03 | 0.15 | 0.03 | 97 | 1017.0 |
| 20260502052157 | 6 | 19 | 0.0 | 0.0 | 0.03 | 0.15 | 0.03 | 97 | 1017.1 |
| 20260502051959 | 6 | 19 | 0.0 | 0.0 | 0.03 | 0.15 | 0.03 | 97 | 1017.2 |
| 20260502051757 | 6 | 19 | 0.0 | 0.0 | 0.03 | 0.15 | 0.03 | 97 | 1017.1 |
| 20260502051559 | 6 | 19 | 0.0 | 0.0 | 0.03 | 0.15 | 0.03 | 97 | 1017.1 |
| 20260502051358 | 6 | 19 | 0.0 | 0.0 | 0.03 | 0.15 | 0.03 | 97 | 1017.4 |
| 20260502051159 | 6 | 19 | 0.0 | 0.0 | 0.03 | 0.15 | 0.03 | 97 | 1017.1 |
| 20260502050959 | 6 | 19 | 0.0 | 0.0 | 0.03 | 0.15 | 0.03 | 97 | 1017.1 |
| 20260502050759 | 6 | 18 | 0.0 | 0.0 | 0.03 | 0.15 | 0.03 | 97 | 1017.2 |
| 20260502050558 | 6 | 19 | 0.0 | 0.0 | 0.03 | 0.15 | 0.03 | 97 | 1017.1 |
| 20260502050359 | 6 | 19 | 0.0 | 0.0 | 0.03 | 0.15 | 0.03 | 97 | 1017.1 |
| 20260502050157 | 6 | 19 | 0.0 | 0.0 | 0.03 | 0.15 | 0.03 | 97 | 1017.2 |
| 20260502050002 | 6 | 18 | 0.0 | 0.0 | 0.03 | 0.15 | 0.03 | 97 | 1017.2 |
| 20260502045757 | 6 | 19 | 0.0 | 0.0 | 0.03 | 0.15 | 0.03 | 97 | 1017.2 |
| 20260502045558 | 6 | 19 | 0.0 | 0.0 | 0.03 | 0.15 | 0.03 | 97 | 1017.2 |
| 20260502045357 | 6 | 11 | 0.0 | 0.0 | 0.03 | 0.15 | 0.03 | 97 | 1017.3 |
| 20260502045157 | 6 | 11 | 0.0 | 0.0 | 0.03 | 0.15 | 0.03 | 97 | 1017.2 |
| 20260502044958 | 6 | 11 | 0.0 | 0.0 | 0.03 | 0.15 | 0.03 | 97 | 1017.3 |
| 20260502044757 | 6 | 8 | 0.0 | 0.0 | 0.03 | 0.15 | 0.03 | 97 | 1017.2 |
| 20260502044557 | 6 | 8 | 0.0 | 0.0 | 0.03 | 0.15 | 0.03 | 97 | 1017.1 |
| 20260502044357 | 6 | 8 | 0.0 | 0.0 | 0.03 | 0.15 | 0.03 | 97 | 1017.3 |
| 20260502044157 | 6 | 8 | 0.0 | 0.0 | 0.03 | 0.15 | 0.03 | 97 | 1017.2 |
| 20260502043959 | 6 | 8 | 0.0 | 0.0 | 0.03 | 0.15 | 0.03 | 97 | 1017.2 |
| 20260502043759 | 6 | 8 | 0.0 | 0.0 | 0.03 | 0.15 | 0.03 | 97 | 1017.2 |
| 20260502043559 | 6 | 8 | 0.0 | 0.0 | 0.03 | 0.15 | 0.03 | 97 | 1017.1 |
| 20260502042959 | 6 | 8 | 0.0 | 0.0 | 0.00 | 0.13 | 0.00 | 97 | 1017.1 |
| 20260502042557 | 6 | 8 | 0.0 | 0.0 | 0.00 | 0.13 | 0.00 | 97 | 1017.1 |
| 20260502042157 | 6 | 8 | 0.0 | 0.0 | 0.00 | 0.13 | 0.00 | 96 | 1017.1 |
| 20260502042000 | 6 | 8 | 0.0 | 0.0 | 0.00 | 0.13 | 0.00 | 96 | 1017.2 |
| 20260502041757 | 6 | 8 | 0.0 | 0.0 | 0.00 | 0.13 | 0.00 | 96 | 1017.2 |
| 20260502041559 | 6 | 8 | 0.0 | 0.0 | 0.00 | 0.13 | 0.00 | 97 | 1017.2 |
| 20260502041357 | 6 | 8 | 0.0 | 0.0 | 0.00 | 0.13 | 0.00 | 97 | 1017.3 |
| 20260502040958 | 6 | 8 | 0.0 | 0.0 | 0.00 | 0.13 | 0.00 | 97 | 1017.3 |
| 20260502040758 | 6 | 8 | 0.0 | 0.0 | 0.00 | 0.13 | 0.00 | 97 | 1017.3 |
| 20260502040557 | 6 | 8 | 0.0 | 0.0 | 0.00 | 0.13 | 0.00 | 97 | 1017.4 |
| 20260502040359 | 6 | 8 | 0.0 | 0.0 | 0.00 | 0.13 | 0.00 | 97 | 1017.3 |
| 20260502040157 | 6 | 8 | 0.0 | 0.0 | 0.00 | 0.13 | 0.00 | 97 | 1017.2 |
| 20260502040002 | 6 | 8 | 0.0 | 0.0 | 0.00 | 0.13 | 0.00 | 97 | 1017.4 |
| 20260502035757 | 6 | 8 | 0.0 | 0.0 | 0.00 | 0.13 | 0.00 | 97 | 1017.4 |
| 20260502035358 | 6 | 8 | 0.0 | 0.0 | 0.00 | 0.13 | 0.00 | 97 | 1017.4 |
| 20260502035158 | 6 | 8 | 0.0 | 0.0 | 0.00 | 0.13 | 0.00 | 97 | 1017.3 |
| 20260502034757 | 6 | 8 | 0.0 | 0.0 | 0.00 | 0.13 | 0.00 | 97 | 1017.3 |
| 20260502034557 | 6 | 8 | 0.0 | 0.0 | 0.00 | 0.13 | 0.00 | 97 | 1017.4 |
| 20260502034358 | 6 | 8 | 0.0 | 0.0 | 0.00 | 0.13 | 0.00 | 97 | 1017.3 |
| 20260502034158 | 6 | 8 | 0.0 | 0.0 | 0.00 | 0.13 | 0.00 | 97 | 1017.3 |
| 20260502033958 | 6 | 8 | 0.0 | 0.0 | 0.00 | 0.13 | 0.00 | 97 | 1017.3 |
| 20260502033757 | 6 | 8 | 0.0 | 0.0 | 0.00 | 0.13 | 0.00 | 97 | 1017.4 |
| 20260502033558 | 6 | 8 | 0.0 | 0.0 | 0.00 | 0.13 | 0.00 | 97 | 1017.3 |
| 20260502033359 | 6 | 8 | 0.0 | 0.0 | 0.00 | 0.13 | 0.00 | 97 | 1017.3 |
| 20260502033159 | 6 | 8 | 0.0 | 0.0 | 0.00 | 0.13 | 0.00 | 96 | 1017.3 |
| 20260502032959 | 6 | 8 | 0.0 | 0.0 | 0.00 | 0.13 | 0.00 | 96 | 1017.4 |
| 20260502032759 | 7 | 8 | 0.0 | 0.0 | 0.00 | 0.13 | 0.00 | 96 | 1017.3 |
| 20260502032558 | 7 | 8 | 0.0 | 0.0 | 0.00 | 0.13 | 0.00 | 96 | 1017.4 |
| 20260502032359 | 7 | 8 | 0.0 | 0.0 | 0.00 | 0.13 | 0.00 | 96 | 1017.4 |
| 20260502032158 | 7 | 8 | 0.0 | 0.0 | 0.00 | 0.13 | 0.00 | 97 | 1017.3 |
| 20260502032000 | 7 | 8 | 0.0 | 0.0 | 0.00 | 0.13 | 0.00 | 97 | 1017.3 |
| 20260502031758 | 7 | 8 | 0.0 | 0.0 | 0.00 | 0.13 | 0.00 | 97 | 1017.3 |
| 20260502031600 | 7 | 8 | 0.0 | 0.0 | 0.00 | 0.13 | 0.00 | 97 | 1017.3 |
| 20260502031358 | 7 | 8 | 0.0 | 0.0 | 0.00 | 0.13 | 0.00 | 97 | 1017.4 |
| 20260502030959 | 7 | 8 | 0.0 | 0.0 | 0.00 | 0.13 | 0.00 | 97 | 1017.3 |
| 20260502030759 | 7 | 8 | 0.0 | 0.0 | 0.00 | 0.13 | 0.00 | 97 | 1017.3 |
| 20260502030558 | 7 | 8 | 0.0 | 0.0 | 0.00 | 0.13 | 0.00 | 97 | 1017.3 |
| 20260502030400 | 7 | 8 | 0.0 | 0.0 | 0.00 | 0.13 | 0.00 | 97 | 1017.3 |
| 20260502030157 | 7 | 8 | 0.0 | 0.0 | 0.00 | 0.13 | 0.00 | 97 | 1017.2 |
| 20260502025757 | 7 | 8 | 0.0 | 0.0 | 0.00 | 0.13 | 0.00 | 97 | 1017.3 |
| 20260502025557 | 7 | 8 | 0.0 | 0.0 | 0.00 | 0.13 | 0.00 | 97 | 1017.2 |
| 20260502025358 | 7 | 8 | 0.0 | 0.0 | 0.00 | 0.13 | 0.00 | 97 | 1017.3 |
| 20260502025158 | 7 | 8 | 0.0 | 0.0 | 0.00 | 0.13 | 0.00 | 97 | 1017.2 |
| 20260502024959 | 7 | 8 | 0.0 | 0.0 | 0.00 | 0.13 | 0.00 | 97 | 1017.3 |
| 20260502024758 | 7 | 8 | 0.0 | 0.0 | 0.00 | 0.13 | 0.00 | 97 | 1017.3 |
| 20260502024558 | 7 | 8 | 0.0 | 0.0 | 0.00 | 0.13 | 0.00 | 97 | 1017.3 |
| 20260502024200 | 7 | 8 | 0.0 | 0.0 | 0.00 | 0.13 | 0.00 | 96 | 1017.3 |
| 20260502023759 | 7 | 8 | 0.0 | 0.0 | 0.00 | 0.13 | 0.00 | 96 | 1017.3 |
| 20260502023359 | 7 | 8 | 0.0 | 0.0 | 0.00 | 0.13 | 0.00 | 97 | 1017.4 |
| 20260502023158 | 7 | 8 | 0.0 | 0.0 | 0.00 | 0.13 | 0.00 | 97 | 1017.5 |
| 20260502023000 | 7 | 8 | 0.0 | 0.0 | 0.00 | 0.13 | 0.00 | 97 | 1017.5 |
| 20260502022759 | 7 | 8 | 0.0 | 0.0 | 0.00 | 0.13 | 0.00 | 97 | 1017.4 |
| 20260502022558 | 7 | 8 | 0.0 | 0.0 | 0.00 | 0.13 | 0.00 | 97 | 1017.5 |
| 20260502022359 | 7 | 8 | 0.0 | 0.0 | 0.00 | 0.13 | 0.00 | 97 | 1017.4 |
| 20260502022158 | 7 | 8 | 0.0 | 0.0 | 0.00 | 0.13 | 0.00 | 97 | 1017.4 |
| 20260502022001 | 7 | 8 | 0.0 | 0.0 | 0.00 | 0.13 | 0.00 | 97 | 1017.5 |
| 20260502021758 | 7 | 8 | 0.0 | 0.0 | 0.00 | 0.13 | 0.00 | 97 | 1017.5 |
| 20260502021559 | 8 | 9 | 0.0 | 0.0 | 0.00 | 0.13 | 0.00 | 97 | 1017.6 |
| 20260502021357 | 8 | 9 | 0.0 | 0.0 | 0.00 | 0.13 | 0.00 | 97 | 1017.5 |
| 20260502020958 | 8 | 9 | 0.0 | 1.6 | 0.00 | 0.13 | 0.00 | 97 | 1017.5 |
| 20260502020759 | 8 | 9 | 0.0 | 1.6 | 0.00 | 0.13 | 0.00 | 97 | 1017.5 |
| 20260502020557 | 8 | 9 | 0.0 | 1.6 | 0.00 | 0.13 | 0.00 | 97 | 1017.6 |
| 20260502020400 | 8 | 10 | 0.0 | 1.6 | 0.00 | 0.13 | 0.00 | 97 | 1017.7 |
| 20260502020158 | 8 | 19 | 0.0 | 0.0 | 0.00 | 0.13 | 0.00 | 97 | 1017.7 |
| 20260502020005 | 8 | 19 | 0.0 | 0.0 | 0.00 | 0.13 | 0.00 | 97 | 1017.6 |
| 20260502015758 | 8 | 19 | 0.0 | 0.0 | 0.00 | 0.13 | 0.00 | 97 | 1017.7 |
| 20260502015600 | 8 | 20 | 0.0 | 0.0 | 0.00 | 0.13 | 0.00 | 97 | 1017.7 |
| 20260502015358 | 8 | 20 | 0.0 | 0.0 | 0.00 | 0.13 | 0.00 | 97 | 1017.7 |
| 20260502014959 | 8 | 20 | 0.0 | 0.0 | 0.00 | 0.13 | 0.00 | 97 | 1017.8 |
| 20260502014759 | 8 | 20 | 0.0 | 0.0 | 0.00 | 0.13 | 0.00 | 97 | 1017.7 |
| 20260502014557 | 8 | 20 | 0.0 | 0.0 | 0.00 | 0.13 | 0.00 | 97 | 1017.8 |
| 20260502014400 | 8 | 20 | 0.0 | 0.0 | 0.00 | 0.13 | 0.00 | 97 | 1017.8 |
| 20260502014157 | 8 | 20 | 0.0 | 0.0 | 0.00 | 0.13 | 0.00 | 97 | 1017.8 |
| 20260502014000 | 8 | 20 | 0.0 | 0.0 | 0.00 | 0.13 | 0.00 | 97 | 1017.9 |
| 20260502013757 | 8 | 20 | 0.0 | 0.0 | 0.00 | 0.13 | 0.00 | 97 | 1017.8 |
| 20260502013559 | 8 | 20 | 0.0 | 0.0 | 0.00 | 0.13 | 0.00 | 97 | 1017.8 |
| 20260502013357 | 8 | 20 | 0.0 | 0.0 | 0.00 | 0.13 | 0.00 | 97 | 1017.9 |
| 20260502013200 | 8 | 20 | 0.0 | 0.0 | 0.00 | 0.13 | 0.00 | 97 | 1018.0 |
| 20260502012958 | 8 | 20 | 0.0 | 0.0 | 0.00 | 0.13 | 0.00 | 97 | 1018.1 |
| 20260502012800 | 8 | 20 | 0.0 | 0.0 | 0.00 | 0.13 | 0.00 | 97 | 1018.0 |
| 20260502012157 | 8 | 20 | 0.0 | 0.0 | 0.00 | 0.13 | 0.00 | 97 | 1018.0 |
| 20260502012000 | 8 | 20 | 0.0 | 0.0 | 0.00 | 0.13 | 0.00 | 97 | 1018.1 |
| 20260502011757 | 8 | 20 | 0.0 | 0.0 | 0.00 | 0.13 | 0.00 | 97 | 1018.1 |
| 20260502011559 | 8 | 20 | 0.0 | 0.0 | 0.00 | 0.13 | 0.00 | 97 | 1018.0 |
| 20260502011358 | 8 | 20 | 0.0 | 0.0 | 0.00 | 0.13 | 0.00 | 97 | 1018.0 |
| 20260502010558 | 8 | 20 | 0.0 | 0.0 | 0.00 | 0.13 | 0.00 | 96 | 1018.2 |
| 20260502010400 | 8 | 20 | 0.0 | 0.0 | 0.00 | 0.13 | 0.00 | 96 | 1018.1 |
| 20260502005757 | 8 | 340 | 0.0 | 0.0 | 0.00 | 0.13 | 0.00 | 97 | 1018.3 |
| 20260502005356 | 8 | 340 | 0.0 | 0.0 | 0.00 | 0.13 | 0.00 | 97 | 1018.3 |
| 20260502005156 | 8 | 341 | 0.0 | 0.0 | 0.00 | 0.13 | 0.00 | 96 | 1018.3 |
| 20260502004957 | 8 | 340 | 0.0 | 0.0 | 0.00 | 0.13 | 0.00 | 96 | 1018.2 |
| 20260502004756 | 8 | 340 | 0.0 | 0.0 | 0.00 | 0.13 | 0.00 | 96 | 1018.2 |
| 20260502004557 | 8 | 340 | 0.0 | 0.0 | 0.00 | 0.13 | 0.00 | 96 | 1018.3 |
| 20260502004157 | 8 | 340 | 0.0 | 0.0 | 0.00 | 0.13 | 0.00 | 96 | 1018.2 |
| 20260502003959 | 9 | 340 | 0.0 | 0.0 | 0.00 | 0.13 | 0.00 | 96 | 1018.3 |
| 20260502003756 | 9 | 340 | 0.0 | 0.0 | 0.00 | 0.13 | 0.00 | 96 | 1018.2 |
| 20260502003558 | 9 | 340 | 0.0 | 0.0 | 0.00 | 0.13 | 0.00 | 96 | 1018.2 |
| 20260502003358 | 9 | 340 | 0.0 | 0.0 | 0.00 | 0.13 | 0.00 | 96 | 1018.3 |
| 20260502003158 | 9 | 340 | 0.0 | 0.0 | 0.00 | 0.13 | 0.00 | 96 | 1018.3 |
| 20260502002957 | 9 | 340 | 0.0 | 0.0 | 0.00 | 0.13 | 0.00 | 96 | 1018.2 |
| 20260502002758 | 9 | 340 | 0.0 | 0.0 | 0.00 | 0.13 | 0.00 | 96 | 1018.3 |
| 20260502002557 | 9 | 340 | 0.0 | 0.0 | 0.00 | 0.13 | 0.00 | 96 | 1018.4 |
| 20260502002358 | 9 | 340 | 0.0 | 0.0 | 0.00 | 0.13 | 0.00 | 96 | 1018.4 |
| 20260502002157 | 9 | 340 | 0.0 | 0.0 | 0.00 | 0.13 | 0.00 | 96 | 1018.3 |
| 20260502002000 | 10 | 340 | 0.0 | 0.0 | 0.00 | 0.13 | 0.00 | 96 | 1018.3 |
| 20260502001756 | 10 | 340 | 0.0 | 4.8 | 0.00 | 0.13 | 0.00 | 96 | 1018.4 |
| 20260502001558 | 10 | 340 | 0.0 | 4.8 | 0.00 | 0.13 | 0.00 | 97 | 1018.4 |
| 20260502001158 | 10 | 340 | 0.0 | 4.8 | 0.00 | 0.13 | 0.00 | 97 | 1018.4 |
| 20260502000957 | 10 | 340 | 1.6 | 4.8 | 0.00 | 0.13 | 0.00 | 96 | 1018.5 |
| 20260502000758 | 10 | 11 | 0.0 | 0.0 | 0.00 | 0.13 | 0.00 | 96 | 1018.5 |
| 20260502000358 | 10 | 11 | 0.0 | 0.0 | 0.00 | 0.13 | 0.00 | 96 | 1018.5 |
| 20260502000158 | 10 | 11 | 0.0 | 0.0 | 0.00 | 0.13 | 0.00 | 97 | 1018.4 |
| 20260501235757 | 10 | 11 | 0.0 | 0.0 | 0.00 | 0.13 | 0.00 | 96 | 1018.5 |
| 20260501235558 | 10 | 11 | 0.0 | 0.0 | 0.00 | 0.13 | 0.00 | 96 | 1018.4 |
| 20260501235357 | 10 | 11 | 0.0 | 0.0 | 0.00 | 0.13 | 0.00 | 96 | 1018.5 |
| 20260501235158 | 10 | 11 | 0.0 | 0.0 | 0.00 | 0.13 | 0.00 | 96 | 1018.5 |
| 20260501234957 | 10 | 11 | 0.0 | 0.0 | 0.00 | 0.13 | 0.00 | 96 | 1018.4 |
| 20260501234556 | 10 | 11 | 0.0 | 0.0 | 0.00 | 0.13 | 0.00 | 97 | 1018.4 |
| 20260501234356 | 10 | 11 | 0.0 | 0.0 | 0.00 | 0.13 | 0.00 | 97 | 1018.4 |
| 20260501234156 | 10 | 11 | 0.0 | 0.0 | 0.00 | 0.13 | 0.00 | 97 | 1018.5 |
| 20260501233957 | 10 | 11 | 0.0 | 0.0 | 0.00 | 0.13 | 0.00 | 97 | 1018.5 |
| 20260501233556 | 10 | 11 | 0.0 | 0.0 | 0.00 | 0.13 | 0.00 | 97 | 1018.4 |
| 20260501233356 | 10 | 11 | 0.0 | 0.0 | 0.00 | 0.13 | 0.00 | 97 | 1018.4 |
| 20260501233158 | 10 | 11 | 0.0 | 0.0 | 0.00 | 0.13 | 0.00 | 97 | 1018.4 |
| 20260501232957 | 10 | 11 | 0.0 | 0.0 | 0.00 | 0.13 | 0.00 | 96 | 1018.5 |
| 20260501232757 | 10 | 11 | 0.0 | 0.0 | 0.00 | 0.13 | 0.00 | 96 | 1018.5 |
| 20260501232556 | 10 | 11 | 0.0 | 0.0 | 0.00 | 0.13 | 0.00 | 96 | 1018.5 |
| 20260501232400 | 10 | 11 | 0.0 | 0.0 | 0.00 | 0.13 | 0.00 | 96 | 1018.5 |
| 20260501232156 | 10 | 11 | 0.0 | 0.0 | 0.00 | 0.13 | 0.00 | 96 | 1018.6 |
| 20260501231959 | 10 | 11 | 0.0 | 0.0 | 0.00 | 0.13 | 0.00 | 96 | 1018.5 |
| 20260501231558 | 10 | 11 | 0.0 | 0.0 | 0.00 | 0.13 | 0.00 | 97 | 1018.6 |
| 20260501231356 | 10 | 11 | 0.0 | 0.0 | 0.00 | 0.13 | 0.00 | 97 | 1018.6 |
| 20260501231158 | 10 | 11 | 0.0 | 0.0 | 0.00 | 0.13 | 0.00 | 97 | 1018.6 |
| 20260501230957 | 10 | 11 | 0.0 | 0.0 | 0.00 | 0.13 | 0.00 | 97 | 1018.6 |
| 20260501230556 | 10 | 11 | 0.0 | 0.0 | 0.00 | 0.13 | 0.00 | 96 | 1018.5 |
| 20260501230358 | 10 | 11 | 0.0 | 0.0 | 0.00 | 0.13 | 0.00 | 96 | 1018.5 |
| 20260501230159 | 10 | 11 | 0.0 | 0.0 | 0.00 | 0.13 | 0.00 | 96 | 1018.6 |
| 20260501230005 | 10 | 11 | 0.0 | 0.0 | 0.00 | 0.13 | 0.00 | 96 | 1018.6 |
| 20260501225759 | 10 | 11 | 0.0 | 0.0 | 0.00 | 0.13 | 0.13 | 96 | 1018.5 |
| 20260501225159 | 10 | 11 | 0.0 | 0.0 | 0.00 | 0.13 | 0.13 | 96 | 1018.6 |
| 20260501225000 | 10 | 11 | 0.0 | 0.0 | 0.00 | 0.13 | 0.13 | 96 | 1018.5 |
| 20260501224759 | 10 | 11 | 0.0 | 0.0 | 0.00 | 0.13 | 0.13 | 96 | 1018.5 |
| 20260501224559 | 10 | 11 | 0.0 | 0.0 | 0.00 | 0.13 | 0.13 | 96 | 1018.5 |
| 20260501224359 | 10 | 11 | 0.0 | 0.0 | 0.00 | 0.13 | 0.13 | 96 | 1018.5 |
| 20260501224159 | 10 | 11 | 0.0 | 0.0 | 0.00 | 0.13 | 0.13 | 96 | 1018.5 |
| 20260501224002 | 10 | 11 | 0.0 | 0.0 | 0.00 | 0.13 | 0.13 | 96 | 1018.5 |
| 20260501223801 | 10 | 11 | 0.0 | 0.0 | 0.00 | 0.13 | 0.13 | 96 | 1018.6 |
| 20260501223601 | 10 | 11 | 0.0 | 0.0 | 0.00 | 0.13 | 0.13 | 96 | 1018.5 |
| 20260501223400 | 10 | 11 | 0.0 | 0.0 | 0.00 | 0.13 | 0.13 | 96 | 1018.5 |
| 20260501223201 | 10 | 11 | 0.0 | 0.0 | 0.00 | 0.13 | 0.13 | 96 | 1018.5 |
| 20260501222801 | 10 | 11 | 0.0 | 0.0 | 0.00 | 0.13 | 0.13 | 96 | 1018.6 |
| 20260501222401 | 10 | 11 | 0.0 | 0.0 | 0.00 | 0.13 | 0.13 | 96 | 1018.6 |
| 20260501222159 | 10 | 11 | 0.0 | 0.0 | 0.00 | 0.13 | 0.13 | 96 | 1018.5 |
| 20260501222001 | 10 | 11 | 0.0 | 0.0 | 0.00 | 0.13 | 0.13 | 96 | 1018.6 |
| 20260501221800 | 11 | 11 | 0.0 | 0.0 | 0.00 | 0.13 | 0.13 | 96 | 1018.6 |
| 20260501221601 | 11 | 11 | 0.0 | 0.0 | 0.00 | 0.13 | 0.13 | 96 | 1018.6 |
| 20260501221359 | 11 | 11 | 0.0 | 0.0 | 0.00 | 0.13 | 0.13 | 96 | 1018.6 |
| 20260501221201 | 11 | 11 | 0.0 | 0.0 | 0.00 | 0.13 | 0.13 | 96 | 1018.6 |
| 20260501221000 | 11 | 11 | 0.0 | 0.0 | 0.00 | 0.13 | 0.13 | 96 | 1018.7 |
| 20260501220800 | 11 | 11 | 0.0 | 0.0 | 0.00 | 0.13 | 0.13 | 96 | 1018.6 |
| 20260501220559 | 11 | 11 | 0.0 | 0.0 | 0.00 | 0.13 | 0.13 | 96 | 1018.7 |
| 20260501220401 | 11 | 11 | 0.0 | 0.0 | 0.00 | 0.13 | 0.13 | 96 | 1018.7 |
| 20260501220159 | 11 | 11 | 0.0 | 0.0 | 0.00 | 0.13 | 0.13 | 96 | 1018.7 |
| 20260501220007 | 11 | 11 | 0.0 | 0.0 | 0.00 | 0.13 | 0.13 | 95 | 1018.7 |
| 20260501215759 | 11 | 11 | 0.0 | 0.0 | 0.00 | 0.13 | 0.13 | 96 | 1018.7 |
| 20260501215559 | 11 | 11 | 0.0 | 0.0 | 0.00 | 0.13 | 0.13 | 96 | 1018.7 |
| 20260501215359 | 11 | 11 | 0.0 | 0.0 | 0.00 | 0.13 | 0.13 | 96 | 1018.7 |
| 20260501215159 | 11 | 11 | 0.0 | 0.0 | 0.00 | 0.13 | 0.13 | 96 | 1018.7 |
| 20260501214801 | 11 | 11 | 0.0 | 0.0 | 0.00 | 0.13 | 0.13 | 96 | 1018.9 |
| 20260501214601 | 11 | 11 | 0.0 | 0.0 | 0.00 | 0.13 | 0.13 | 96 | 1018.8 |
| 20260501214400 | 11 | 11 | 0.0 | 0.0 | 0.00 | 0.13 | 0.13 | 96 | 1018.8 |
| 20260501214159 | 11 | 11 | 0.0 | 0.0 | 0.00 | 0.13 | 0.13 | 96 | 1018.8 |
| 20260501214002 | 11 | 11 | 0.0 | 0.0 | 0.00 | 0.13 | 0.13 | 96 | 1018.8 |
| 20260501213559 | 11 | 11 | 0.0 | 0.0 | 0.00 | 0.13 | 0.13 | 95 | 1018.9 |
| 20260501213159 | 11 | 11 | 0.0 | 0.0 | 0.00 | 0.13 | 0.13 | 95 | 1018.8 |
| 20260501213000 | 11 | 11 | 0.0 | 0.0 | 0.00 | 0.13 | 0.13 | 95 | 1019.0 |
| 20260501212559 | 11 | 11 | 0.0 | 0.0 | 0.00 | 0.13 | 0.13 | 95 | 1018.8 |
| 20260501212359 | 11 | 11 | 0.0 | 0.0 | 0.00 | 0.13 | 0.13 | 95 | 1018.9 |
| 20260501212159 | 11 | 11 | 0.0 | 0.0 | 0.00 | 0.13 | 0.13 | 95 | 1018.8 |
| 20260501212000 | 11 | 11 | 0.0 | 0.0 | 0.00 | 0.13 | 0.13 | 95 | 1018.8 |
| 20260501211559 | 11 | 11 | 0.0 | 0.0 | 0.00 | 0.13 | 0.13 | 95 | 1018.7 |
| 20260501211359 | 11 | 11 | 0.0 | 0.0 | 0.00 | 0.13 | 0.13 | 95 | 1018.7 |
| 20260501211200 | 11 | 11 | 0.0 | 0.0 | 0.00 | 0.13 | 0.13 | 95 | 1018.7 |
| 20260501211000 | 11 | 11 | 0.0 | 0.0 | 0.00 | 0.13 | 0.13 | 95 | 1018.7 |